[[{"header":{"parameterUnit":"m.s-1","parameterCategory":1,"la1":30.2991,"la2":30.254,"lo1":-89.0895,"lo2":-89.0444,"dy":0.0017,"dx":0.0017,"nx":28,"ny":28,"refTime":"2026-01-07T03:00:00:Z","depth":0,"parameterNumber":2,"parameterNumberName":"U-component_of_WINDS"},"data":[0,0,0,0,0,0,0,0,0,0,0,0,0,0,0,0,0,0,0,0,0,0,0,0,0,0,0,0,0,0,0,0,0,0,0,0,0,0,0,0,0,0,0,0,0,0,0,0,0,0,0,0,0,0,0,0,0,0,-0.3707,-0.3707,0,-0.3719,-0.3719,-0.372,-0.3767,-0.3768,-0.3769,-0.377,-0.3779,-0.3778,-0.3777,0,0,0,0,0,0,0,0,0,0,0,0,0,-0.3719,-0.3718,-0.3706,-0.3707,-0.3707,-0.3719,-0.3719,-0.372,-0.3767,-0.3768,-0.3769,-0.3771,-0.3779,-0.3778,-0.3777,0,0,0,0,0,0,0,0,0,0,0,0,0,-0.372,-0.3718,-0.3706,-0.3732,-0.3734,-0.3719,-0.3719,-0.372,-0.3767,-0.3768,-0.377,-0.3771,-0.378,-0.3778,-0.3777,-0.3737,0,0,-0.3774,-0.3773,0,0,0,0,0,0,0,0,-0.372,-0.372,-0.3728,-0.373,-0.3733,-0.3743,-0.3727,-0.3725,-0.3766,-0.3754,-0.377,-0.3772,-0.3765,-0.3766,-0.3764,-0.3738,-0.3738,-0.3774,-0.3773,-0.3772,-0.3772,0,0,0,0,0,0,0,-0.372,-0.372,-0.3711,-0.3728,-0.3731,-0.3741,-0.3743,-0.3727,-0.375,-0.3755,-0.3759,-0.376,-0.3767,-0.3765,-0.3765,-0.3738,-0.3774,-0.3773,-0.3772,-0.3771,-0.3677,-0.3675,0,0,0,0,0,0,-0.3717,-0.3719,-0.3711,-0.3712,-0.3731,-0.374,-0.3742,-0.3738,-0.3751,-0.3754,-0.3759,-0.3762,-0.3766,-0.3766,-0.3765,-0.3718,-0.3772,-0.3771,-0.3771,-0.3679,-0.3677,-0.3675,0,0,0,0,0,0,-0.3717,-0.3716,-0.3711,-0.3717,-0.3717,-0.3738,-0.3733,-0.3738,-0.3736,-0.3753,-0.3757,-0.3753,-0.3768,-0.3767,-0.3744,-0.3719,-0.3771,-0.377,-0.3681,-0.3678,-0.3676,-0.3622,0,0,0,0,0,0,-0.3717,-0.3716,-0.3702,-0.3716,-0.3716,-0.369,-0.3732,-0.3737,-0.3734,-0.3739,-0.3749,-0.3752,-0.3769,-0.3745,-0.3742,-0.3718,-0.3769,-0.3683,-0.368,-0.3677,-0.3627,-0.3618,-0.3611,0,0,0,0,0,-0.3718,-0.3686,-0.3701,-0.3699,-0.3699,-0.3688,-0.3688,-0.371,-0.3732,-0.3717,-0.3728,-0.3751,-0.3722,-0.3742,-0.374,-0.3714,-0.3685,-0.3681,-0.3677,-0.363,-0.362,-0.3611,0,0,0,0,0,0,-0.3666,-0.3688,-0.3705,-0.3677,-0.3681,-0.3696,-0.3678,-0.3699,-0.3695,-0.37,-0.3726,-0.3727,-0.37,-0.3705,-0.3727,-0.3675,-0.3707,-0.3703,-0.3673,-0.3663,-0.3656,-0.3654,-0.3768,0,0,0,0,0,-0.3652,-0.3643,-0.3662,-0.3635,-0.3636,-0.3657,-0.3653,-0.3669,-0.3674,-0.3675,-0.3684,-0.3686,-0.3678,-0.3671,-0.3664,-0.3628,-0.363,-0.3609,-0.3602,-0.3595,-0.359,-0.357,-0.356,-0.3661,-0.3661,-0.3662,0,0,-0.3622,-0.3632,-0.3625,-0.3625,-0.363,-0.3618,-0.3658,-0.3644,-0.3635,-0.3673,-0.3651,-0.3658,-0.3662,-0.3631,-0.3619,-0.3635,-0.3563,-0.359,-0.3585,-0.3583,-0.3564,-0.3555,-0.3546,-0.3659,-0.3659,-0.366,0,0,-0.356,-0.3568,-0.3546,-0.355,-0.3558,-0.3572,-0.3566,-0.3579,-0.3585,-0.3565,-0.3592,-0.3581,-0.3566,-0.3567,-0.3566,-0.3504,-0.3525,-0.3501,-0.3461,-0.344,-0.3432,-0.3425,-0.3401,-0.3392,-0.3497,-0.3497,-0.3496,0,-0.3521,-0.3506,-0.3532,-0.3516,-0.3514,-0.355,-0.3526,-0.3529,-0.3533,-0.353,-0.3549,-0.353,-0.3535,-0.3505,-0.349,-0.3488,-0.3481,-0.3499,-0.3432,-0.3425,-0.3418,-0.3396,-0.3387,-0.3494,-0.3494,-0.3494,-0.3494,0,-0.3456,-0.3445,-0.3426,-0.343,-0.3427,-0.3407,-0.3429,-0.3422,-0.3439,-0.345,-0.3427,-0.3435,-0.3429,-0.3424,-0.344,-0.3395,-0.3405,-0.3427,-0.3459,-0.3405,-0.3384,-0.3376,-0.3489,-0.349,-0.3491,-0.3492,0,0,-0.3361,-0.3381,-0.3373,-0.3375,-0.3385,-0.3376,-0.3358,-0.3354,-0.3346,-0.3348,-0.3331,-0.3317,-0.3338,-0.3336,-0.3353,-0.3335,-0.3283,-0.3359,-0.336,-0.3343,-0.3231,-0.3213,-0.3202,-0.3298,-0.3296,-0.3295,-0.323,0,-0.3301,-0.3272,-0.3295,-0.326,-0.3249,-0.3283,-0.3266,-0.327,-0.328,-0.3271,-0.3282,-0.3271,-0.33,-0.3299,-0.3283,-0.3293,-0.3261,-0.3298,-0.328,-0.3279,-0.3276,-0.3192,-0.3172,-0.3111,-0.3222,-0.3221,-0.322,0,-0.3227,-0.3226,-0.3191,-0.3203,-0.3199,-0.3184,-0.3181,-0.3173,-0.3177,-0.3185,-0.3183,-0.3204,-0.3185,-0.3218,-0.319,-0.3215,-0.3209,-0.3213,-0.3211,-0.3208,-0.3245,-0.3184,-0.3092,-0.3082,-0.3208,-0.3209,-0.321,0,-0.3158,-0.3149,-0.3126,-0.3127,-0.3141,-0.3129,-0.3134,-0.314,-0.3136,-0.3133,-0.313,-0.3124,-0.3121,-0.3115,-0.3133,-0.3156,-0.3102,-0.3137,-0.3106,-0.3105,-0.3091,-0.3092,-0.2995,-0.3091,-0.3092,-0.3092,-0.3092,0,-0.3088,-0.3064,-0.3095,-0.3081,-0.3055,-0.3081,-0.3054,-0.3063,-0.3068,-0.3054,-0.3083,-0.3069,-0.3095,-0.3083,-0.3097,-0.3071,-0.3069,-0.3074,-0.3077,-0.307,-0.3069,-0.3065,-0.3068,-0.3089,-0.309,-0.309,-0.3091,0,-0.3006,-0.3026,-0.3003,-0.3019,-0.3022,-0.3002,-0.3014,-0.3001,-0.3013,-0.2996,-0.2993,-0.3012,-0.2999,-0.3017,-0.3007,-0.3016,-0.2979,-0.299,-0.2977,-0.298,-0.2947,-0.2949,-0.2842,-0.2828,-0.2936,-0.2935,-0.2934,0,-0.2958,-0.2941,-0.2955,-0.2949,-0.2952,-0.2942,-0.2938,-0.2963,-0.2957,-0.296,-0.2945,-0.2936,-0.2929,-0.2908,-0.2919,-0.291,-0.292,-0.2883,-0.2919,-0.2911,-0.2916,-0.2916,-0.2913,-0.2875,-0.2874,-0.2873,-0.2872,0,-0.2871,-0.2882,-0.2876,-0.2872,-0.2867,-0.2865,-0.2866,-0.2858,-0.2884,-0.2876,-0.2865,-0.286,-0.2849,-0.2838,-0.2832,-0.2836,-0.2856,-0.2861,-0.2853,-0.2844,-0.2836,-0.2837,-0.2955,-0.2863,-0.2863,-0.2864,-0.2865,-0.2865,-0.2804,-0.2789,-0.2796,-0.2788,-0.2791,-0.2791,-0.2778,-0.279,-0.2781,-0.2775,-0.279,-0.2774,-0.2777,-0.2772,-0.2773,-0.276,-0.2775,-0.2764,-0.2761,-0.2757,-0.2751,-0.284,-0.2759,-0.2759,-0.2759,-0.276,-0.276,0,-0.2716,-0.2722,-0.2714,-0.2714,-0.2707,-0.273,-0.2731,-0.2723,-0.2709,-0.2712,-0.2705,-0.269,-0.268,-0.2691,-0.2681,-0.2668,-0.2678,-0.2665,-0.2665,-0.2665,-0.2739,-0.2745,-0.2657,-0.2657,-0.2657,-0.2657,-0.2657,-0.2657,-0.2669,-0.2645,-0.2657,-0.2634,-0.2641,-0.2627,-0.2625,-0.2624,-0.2625,-0.2608,-0.26,-0.2608,-0.2613,-0.2604,-0.2595,-0.2598,-0.2592,-0.2575,-0.2581,-0.265,-0.266,-0.2669,-0.2676,-0.2574,-0.2574,-0.2508,-0.2508,-0.2507]},{"header":{"parameterUnit":"m.s-1","parameterCategory":1,"la1":30.2991,"la2":30.254,"lo1":-89.0895,"lo2":-89.0444,"dy":0.0017,"dx":0.0017,"nx":28,"ny":28,"refTime":"2026-01-07T03:00:00:Z","depth":0,"parameterNumber":3,"parameterNumberName":"V-component_of_WINDS"},"data":[0,0,0,0,0,0,0,0,0,0,0,0,0,0,0,0,0,0,0,0,0,0,0,0,0,0,0,0,0,0,0,0,0,0,0,0,0,0,0,0,0,0,0,0,0,0,0,0,0,0,0,0,0,0,0,0,0,0,2.6452,2.6452,0,2.6473,2.6474,2.6474,2.6447,2.6446,2.6445,2.6445,2.6463,2.6464,2.6466,0,0,0,0,0,0,0,0,0,0,0,0,0,2.6385,2.6386,2.6452,2.6452,2.6452,2.6473,2.6474,2.6474,2.6448,2.6446,2.6445,2.6444,2.6463,2.6464,2.6466,0,0,0,0,0,0,0,0,0,0,0,0,0,2.6411,2.6387,2.6452,2.6442,2.6441,2.6473,2.6474,2.6474,2.6448,2.6446,2.6445,2.6444,2.6462,2.6464,2.6466,2.6508,0,0,2.6472,2.6473,0,0,0,0,0,0,0,0,2.641,2.6413,2.6443,2.6443,2.6442,2.6456,2.6457,2.6485,2.6448,2.6445,2.6444,2.6443,2.6462,2.6464,2.6471,2.6509,2.651,2.6473,2.6474,2.6475,2.6475,0,0,0,0,0,0,0,2.6408,2.6412,2.646,2.6444,2.6443,2.6435,2.6437,2.6462,2.6461,2.6445,2.6443,2.6447,2.6461,2.6469,2.6471,2.651,2.6473,2.6474,2.6476,2.6477,2.6584,2.6586,0,0,0,0,0,0,2.6408,2.6411,2.646,2.6461,2.6422,2.6438,2.644,2.6453,2.6461,2.6461,2.6448,2.6445,2.6466,2.6469,2.6472,2.6522,2.6475,2.6477,2.6478,2.6582,2.6584,2.6586,0,0,0,0,0,0,2.6406,2.6412,2.6459,2.6436,2.6441,2.644,2.6455,2.6454,2.6462,2.6463,2.6462,2.6456,2.6465,2.6469,2.65,2.6522,2.6478,2.648,2.658,2.6583,2.6585,2.6623,0,0,0,0,0,0,2.6404,2.6412,2.6428,2.6436,2.6442,2.6487,2.6457,2.6456,2.6466,2.6463,2.647,2.647,2.6464,2.6497,2.6502,2.6524,2.6481,2.6578,2.6582,2.6584,2.662,2.6626,2.6632,0,0,0,0,0,2.6402,2.6437,2.6429,2.6435,2.6463,2.6489,2.6492,2.6485,2.6468,2.6484,2.6485,2.647,2.6519,2.65,2.6505,2.6529,2.6577,2.6581,2.6584,2.6617,2.6625,2.6632,0,0,0,0,0,0,2.643,2.6438,2.6429,2.6468,2.6478,2.6484,2.6505,2.6494,2.6508,2.6504,2.6494,2.6496,2.653,2.6532,2.6511,2.657,2.6545,2.655,2.6568,2.6576,2.6582,2.6581,2.6483,0,0,0,0,0,2.6441,2.6463,2.6467,2.6501,2.6507,2.6505,2.6516,2.651,2.6519,2.6523,2.6526,2.6535,2.6552,2.6564,2.658,2.6619,2.6621,2.6638,2.6645,2.665,2.6654,2.6677,2.6685,2.6598,2.6598,2.6598,0,0,2.6464,2.6471,2.6484,2.6507,2.6514,2.6536,2.6509,2.6532,2.6548,2.6526,2.6556,2.6559,2.6568,2.6604,2.662,2.6607,2.6678,2.6654,2.6658,2.666,2.6681,2.6689,2.6697,2.66,2.66,2.66,0,0,2.6516,2.6523,2.6553,2.6561,2.6573,2.6571,2.6578,2.6586,2.6588,2.6618,2.6602,2.662,2.665,2.6658,2.6666,2.6722,2.6709,2.6727,2.676,2.6781,2.6788,2.6794,2.6815,2.6823,2.6731,2.6731,2.6731,0,2.6542,2.6576,2.6569,2.6595,2.6605,2.6588,2.6617,2.6625,2.6641,2.6648,2.6634,2.6672,2.6676,2.6715,2.6729,2.6735,2.6743,2.6727,2.6788,2.6794,2.68,2.682,2.6827,2.6734,2.6733,2.6733,2.6733,0,2.6608,2.6631,2.6653,2.6671,2.6684,2.6711,2.6708,2.6721,2.6714,2.6714,2.6746,2.6751,2.6768,2.6776,2.6769,2.6814,2.6806,2.679,2.6764,2.681,2.6829,2.6836,2.6737,2.6736,2.6735,2.6735,0,0,2.6679,2.6693,2.6702,2.671,2.6722,2.6739,2.6766,2.6784,2.6796,2.6807,2.683,2.6856,2.6842,2.6851,2.6844,2.6863,2.6909,2.6845,2.6845,2.6857,2.6959,2.6972,2.6981,2.69,2.6901,2.6902,2.6959,0,2.6732,2.678,2.6775,2.682,2.6842,2.6826,2.6849,2.6858,2.6859,2.6876,2.6876,2.6896,2.6875,2.6881,2.6899,2.6899,2.6929,2.6895,2.692,2.6921,2.692,2.6991,2.7004,2.7058,2.6966,2.6967,2.6968,0,2.6801,2.6817,2.6865,2.6875,2.6884,2.6905,2.6922,2.6939,2.6949,2.6948,2.6959,2.6949,2.6975,2.6948,2.6984,2.6961,2.6971,2.6973,2.6975,2.6978,2.6948,2.6997,2.7074,2.7083,2.6979,2.6978,2.6978,0,2.685,2.6883,2.6916,2.6924,2.6936,2.6951,2.6957,2.6966,2.6977,2.6991,2.6999,2.7015,2.7025,2.7037,2.7032,2.7013,2.7069,2.7042,2.7069,2.707,2.7083,2.7082,2.7164,2.7087,2.7087,2.7087,2.7087,0,2.6911,2.6941,2.6939,2.6959,2.6993,2.6986,2.7019,2.7022,2.703,2.7051,2.7037,2.7056,2.7047,2.7066,2.7061,2.7092,2.7096,2.7096,2.7095,2.7098,2.7098,2.7105,2.7102,2.7089,2.7088,2.7088,2.7088,0,2.6971,2.6971,2.7007,2.7016,2.7019,2.7043,2.705,2.7069,2.7069,2.7095,2.71,2.71,2.7121,2.7117,2.7139,2.7136,2.7176,2.7169,2.7173,2.7172,2.72,2.7198,2.7291,2.7303,2.7216,2.7217,2.7218,0,2.7011,2.7034,2.7047,2.706,2.7067,2.7089,2.7102,2.7095,2.7109,2.7123,2.714,2.716,2.7176,2.7211,2.7212,2.7229,2.7223,2.7255,2.7226,2.7229,2.7226,2.7225,2.7228,2.7261,2.7262,2.7262,2.7263,0,2.7082,2.7081,2.7101,2.712,2.7136,2.7151,2.7164,2.7175,2.7171,2.7186,2.7209,2.7221,2.7245,2.7265,2.7282,2.7286,2.7274,2.7272,2.728,2.7284,2.7286,2.7287,2.719,2.727,2.7269,2.7269,2.7269,2.7268,2.7134,2.7155,2.7167,2.719,2.7199,2.7212,2.7231,2.7234,2.7253,2.7274,2.7268,2.7294,2.7303,2.7325,2.7331,2.735,2.7338,2.7349,2.7352,2.7355,2.7359,2.7282,2.7353,2.7353,2.7352,2.7352,2.7352,0,2.7206,2.7213,2.7234,2.7254,2.7272,2.726,2.7274,2.7289,2.7312,2.7323,2.734,2.7366,2.7386,2.7388,2.7407,2.7422,2.7417,2.7427,2.7427,2.7428,2.7368,2.736,2.7431,2.7431,2.7431,2.7431,2.7431,2.7431,2.7245,2.728,2.7281,2.732,2.7326,2.7353,2.7362,2.7374,2.7383,2.7413,2.743,2.7432,2.744,2.7459,2.7477,2.7477,2.7485,2.7498,2.7496,2.744,2.7432,2.7425,2.7418,2.7499,2.7499,2.7555,2.7555,2.7556]}]]